• MPC Preparation (Info)

  • MPEC 2023-L59 : 2022 TX3

    The following Minor Planet Electronic Circular may be linked-to from your own Web pages, but must not otherwise be redistributed electronically.

    A form allowing access to any MPEC is at the bottom of this page.


    Read MPEC 2023-L58 Read MPEC 2023-L60


    M.P.E.C. 2023-L59                                 Issued 2023 June 11, 14:09 UT
    
         The Minor Planet Electronic Circulars contain information on unusual
             minor planets, routine data on comets and natural satellites,
             and occasional editorial announcements.  They are published
        on behalf of Division F of the International Astronomical Union by the
              Minor Planet Center, Smithsonian Astrophysical Observatory,
                              Cambridge, MA 02138, U.S.A.
    			  
                 Prepared using the Tamkin Foundation Computer Network
    
                                  MPC@CFA.HARVARD.EDU
                URL https://www.minorplanetcenter.net/    ISSN 1523-6714
    
                                    2022 TX3                                 
    
    
                               Revision to MPEC 2022-U121                           
    
    Additional Observations:
         K22T03X  C2020 10 29.48017 08 15 08.02 +02 29 19.1          21.2 GVEL059G96
         K22T03X  C2020 10 29.49064 08 15 11.87 +02 29 01.2          20.8 GVEL059G96
         K22T03X  C2022 11 19.94462203 48 25.778-17 26 49.85         19.25cVEL059M22
         K22T03X  C2022 11 19.94778403 48 25.354-17 27 01.84         18.97cVEL059M22
         K22T03X  C2022 11 19.95544803 48 24.449-17 27 27.94         19.15cVEL059M22
         K22T03X  C2022 11 19.96563303 48 23.138-17 28 04.04         19.34cVEL059M22
         K22T03X KC2023 06 10.41251520 44 08.214-06 09 53.32         22.86GVEL059V06
         K22T03X KC2023 06 10.42307620 44 07.433-06 09 55.37         22.33GVEL059V06
         K22T03X KC2023 06 10.43363520 44 06.691-06 09 57.49         22.48GVEL059V06
         K22T03X KC2023 06 10.44419520 44 05.960-06 10 00.16         22.20GVEL059V06
    
    Observer details:
    G96 Mt. Lemmon Survey.  Observer G. J. Leonard.  Measurers B. Gray, D. Rankin,
        F. C. Shelly.  1.5-m reflector + 10K CCD.
    M22 ATLAS South Africa, Sutherland.  Observers L. Denneau, R. Siverd, J.
        Tonry, H. Weiland.  Measurers L. Denneau, N. Erasmus, A. Fitzsimmons, A.
        Lawrence, J. Robinson, R. Siverd, J. Tonry, H. Weiland.  0.5-m Reflector +
        CCD.
    V06 Catalina Sky Survey-Kuiper.  Observers J. K. Hogan, R. A. Kowalski.
        Measurers E. J. Christensen, D. Fay, J. B. Fazekas, D. C. Fuls, A. R.
        Gibbs, A. D. Grauer, H. Groeller, J. K. Hogan, R. A. Kowalski, S. M.
        Larson, G. J. Leonard, D. Rankin, R. L. Seaman, A. Serrano, F. C. Shelly,
        K. W. Wierzchos.  1.55-m reflector + 1K CCD.
    
    First and last observations above in comparison with prediction:
    Residuals in seconds of arc, reference and Delta-T
    201029 G96 76.5+  1.8+    230610 V06  1.4+  0.2+    MPO733923   +0.00 days
    
    Orbital elements:
    2022 TX3                                                 Earth MOID = 0.1279 AU
    Epoch 2023 Feb. 25.0 TT = JDT 2460000.5                 Veres                   
    M  11.24808              (2000.0)            P               Q                  
    n   0.47320787     Peri.    3.37353     -0.90915113     -0.41152483             
    a   1.6309278      Node   152.05030     +0.37883485     -0.88098908             
    e   0.5656480      Incl.    7.84390     +0.17299819     -0.23346425             
    P   2.08           H   20.18          G   0.15           U   0                  
    Residuals in seconds of arc
    201029 G96  0.0   0.2+    221115 M22  0.7+  0.4+    221124 G96  0.1+  0.1+
    201029 G96  0.0   0.0     221116 W68  0.6-  0.0     221124 G96  0.2+  0.1+
    220928 F52  0.1+  0.0     221116 W68  0.4+  0.0     221124 G96  0.0   0.1-
    220928 F52  0.1-  0.2+    221116 W68  0.2+  0.3+    221124 G96  0.1+  0.2-
    220928 F52  0.1+  0.3+    221116 W68  0.4-  0.8-    221126 W68  0.1+  0.1-
    221002 F52  0.0   0.2-    221116 M22  0.4+  0.2-    221126 W68  0.2-  0.4+
    221002 F52  0.1-  0.1+    221116 M22  0.6-  0.8+    221126 W68  0.2+  0.2+
    221002 F52  0.1-  0.1+    221116 M22  0.1-  0.1-    221126 W68  0.1-  0.3-
    221006 F52  0.1-  0.1+    221116 M22  0.0   0.6-    221127 W68  0.0   0.3+
    221006 F52  0.1+  0.2+    221118 W68  0.1+  1.1+    221127 W68  0.2-  0.4+
    221006 F52  0.0   0.2-    221118 W68  0.4-  0.4-    221127 W68  0.4+  0.1+
    221006 F52  0.1-  0.0     221118 W68  0.2+  0.2+    221127 W68  0.2+  0.0
    221020 F52  0.1-  0.1+    221118 W68  0.2-  0.4-    221127 M22  0.0   0.4+
    221020 F52  0.0   0.0     221119 W68  0.5-  0.2-    221127 M22  0.5+  0.3-
    221020 F52  0.0   0.0     221119 W68  0.0   0.3+    221127 M22  0.1+  0.1-
    221020 F52  0.0   0.0     221119 W68  0.4-  0.2-    221127 M22  0.2-  0.4-
    221029 G96  0.0   0.1-    221119 W68  0.4-  0.4+    221130 W68  0.5-  0.0
    221029 G96  0.0   0.0     221119 703  0.3-  0.0     221130 W68  0.1+  0.2-
    221029 G96  0.2+  0.1-    221119 703  0.4-  0.0     221130 W68  0.7-  0.1+
    221029 G96  0.0   0.2-    221119 703  0.2+  0.6-    221130 W68  0.0   0.4-
    221029 F51  0.0   0.0     221119 703  0.1+  0.5-    221201 M22  0.1+  0.4+
    221029 F51  0.1+  0.0     221119 M22  0.4-  0.3+    221201 M22  0.1+  0.5-
    221029 F51  0.0   0.1-    221119 M22  0.7-  0.6-    221201 M22  0.1-  0.2+
    221029 F51  0.1-  0.0     221119 M22  0.3+  0.4+    221201 M22  0.1+  0.6-
    221031 703  0.5-  0.4+    221119 M22  0.2+  0.2+    221202 M22  0.9+  0.6+
    221031 703  0.2-  0.1+    221122 W68  0.7+  0.0     221202 M22  0.5-  0.8-
    221031 703  2.6+  0.5-    221122 W68  0.3+  0.1+    221202 M22  0.3-  0.3-
    221102 F51  0.0   0.0     221122 W68  0.2-  0.4-    221202 M22  0.1+  0.0
    221102 F51  0.0   0.1-    221122 W68  0.0   0.3-    221211 W68  0.2-  0.1+
    221102 F51  0.0   0.0     221123 W68  0.1-  0.3-    221211 W68  0.1-  0.6-
    221112 703  0.7+  0.1+    221123 W68  0.1-  0.7+    221211 W68  0.2-  0.1-
    221112 703  1.2+  0.0     221123 W68  0.5+  0.0     221211 W68  0.0   0.2-
    221112 703  0.5-  0.2+    221123 W68  0.1+  0.0     221215 W68  0.6-  0.9+
    221112 703  1.4+  0.5+    221123 F52  0.0   0.0     221215 W68  0.3-  0.2-
    221113 A17  0.6-  0.0     221123 F52  0.0   0.0     221215 W68  1.3-  1.0+
    221113 A17  0.0   0.3+    221123 F52  0.0   0.0     221215 W68  0.0   0.3+
    221113 A17  0.3-  0.0     221123 M22  0.5+  0.4+    230610 V06  0.3+  0.4-
    221115 M22  0.3-  0.6+    221123 M22  0.0   0.4-    230610 V06  0.3-  0.0
    221115 M22  0.7+  0.4-    221123 M22  0.2-  0.5-    230610 V06  0.2-  0.3+
    221115 M22  0.7+  0.7+    221123 M22  0.1+  0.1-    230610 V06  0.0   0.1+
    
    Ephemeris:
    2022 TX3                 a,e,i = 1.63, 0.57, 8                   q = 0.7084
    Date    TT    R. A. (2000) Decl.     Delta      r    Elong.  Phase     V
    2023 05 12    20 55 39.3 -06 15 39   0.9466  1.4553    96.1    43.6    22.6
    ...
    2023 05 27    20 55 04.0 -05 44 47   0.9086  1.5772   110.2    37.1    22.5
    ...
    2023 06 04    20 50 17.0 -05 51 22   0.8880  1.6390   118.8    32.8    22.4
    ...
    2023 06 10    20 44 35.5 -06 08 14   0.8748  1.6838   125.8    29.3    22.3
    2023 06 11    20 43 28.2 -06 12 04   0.8728  1.6912   127.0    28.6    22.3
    2023 06 12    20 42 17.9 -06 16 13   0.8710  1.6985   128.3    28.0    22.3
    ...
    2023 06 18    20 34 17.4 -06 47 17   0.8628  1.7416   135.8    24.0    22.2
    ...
    2023 06 26    20 21 18.7 -07 44 27   0.8607  1.7972   146.3    18.3    22.1
    ...
    2023 07 11    19 52 59.4 -10 07 00   0.8941  1.8953   165.4     7.8    21.9
    
    A. U. Tomatic                (C) Copyright 2023 MPC           M.P.E.C. 2023-L59
    


    Read MPEC 2023-L58 Read MPEC 2023-L60


    MPEC number:

    Enter an MPEC number in one of the following forms:

    • 1997-B01 (the full form)
    • J97B01 (the packed version of the full form)
    • B01 (the abbreviated form)